[Iaude] MPEC V174: 2023 VR5 [a=1.02,e=0.10,i=1.5,H=27.8]
    mpec at marsden.cfa.harvard.edu 
    mpec at marsden.cfa.harvard.edu
       
    Fri Nov 10 10:14:58 EST 2023
    
    
  
M.P.E.C. 2023-V174                            Issued 2023 November 10, 15:13 UT
     The Minor Planet Electronic Circulars contain information on unusual
         minor planets, routine data on comets and natural satellites,
         and occasional editorial announcements.  They are published
    on behalf of Division F of the International Astronomical Union by the
          Minor Planet Center, Smithsonian Astrophysical Observatory,
                          Cambridge, MA 02138, U.S.A.
			  
             Prepared using the Tamkin Foundation Computer Network
                              MPC at CFA.HARVARD.EDU
            URL https://www.minorplanetcenter.net/    ISSN 1523-6714
                                    2023 VR5                                    
Observations:
     K23V05R* C2023 11 09.37648304 59 27.470+27 05 45.78         22.45GVEV174V00
     K23V05R  C2023 11 09.38199904 59 27.899+27 06 04.50         21.89GVEV174V00
     K23V05R  C2023 11 09.38749904 59 28.352+27 06 22.90         21.93GVEV174V00
     K23V05R  C2023 11 09.39299804 59 28.759+27 06 40.72         22.38GVEV174V00
     K23V05R KC2023 11 09.44525704 59 32.760+27 09 27.60         20.97GVEV174V06
     K23V05R KC2023 11 09.45479404 59 33.650+27 09 57.40         20.53GVEV174V06
     K23V05R KC2023 11 09.46432704 59 34.430+27 10 27.60         21.73GVEV174V06
     K23V05R KC2023 11 09.47385804 59 35.270+27 10 57.90               VEV174V06
     K23V05R KC2023 11 10.34884 05 02 24.01 +28 02 19.0                VEV174291
     K23V05R KC2023 11 10.35995 05 02 25.03 +28 03 00.1          22.1 RVEV174291
Observer details:
291 LPL/Spacewatch II.  Observer T. H. Bressi.  1.8-m f/2.7 reflector + CCD.
V00 Kitt Peak-Bok.  Observer K. W. Wierzchos.  Measurers M. J. Brucker, C. E.
    Woodward, D. Fay, J. B. Fazekas, D. C. Fuls, A. R. Gibbs, H. Groeller, J.
    K. Hogan, R. A. Kowalski, S. M. Larson, C. Lejoly, G. J. Leonard, R. A.
    Mastaler, R. S. McMillan, D. Rankin, R. L. Seaman, A. Serrano, F. C.
    Shelly, K. W. Wierzchos.  2.25-m reflector + 4x4K mosaic CCD.
V06 Catalina Sky Survey-Kuiper.  Observer H. Groeller.  Measurers E. C.
    Beshore, D. Fay, J. B. Fazekas, D. C. Fuls, A. R. Gibbs, A. D. Grauer, H.
    Groeller, J. K. Hogan, R. A. Kowalski, S. M. Larson, G. J. Leonard, D.
    Rankin, R. L. Seaman, F. C. Shelly, K. W. Wierzchos.  1.55-m reflector +
    1K CCD.
Orbital elements:
2023 VR5                                                 Earth MOID = 0.0040 AU
Epoch 2023 Sept. 13.0 TT = JDT 2460200.5                Veres                   
M 221.85300              (2000.0)            P               Q                  
n   0.95067467     Peri.  101.05065     -0.79145133     -0.61100130             
a   1.0243494      Node    41.29038     +0.55038715     -0.72435115             
e   0.0987452      Incl.    1.45877     +0.26585481     -0.31936316             
P   1.04           H   27.86          G   0.15           U   9                  
Residuals in seconds of arc
231109 V00  0.1-  0.0     231109 V06  0.3-  0.2-    231110 291  0.3-  0.3+
231109 V00  0.1-  0.2+    231109 V06  0.5+  0.3-    231110 291  0.3+  0.3-
231109 V00  0.2+  0.1+    231109 V06  0.4-  0.3+
231109 V00  0.0   0.4-    231109 V06  0.9-  1.3+
Ephemeris:
2023 VR5                 a,e,i = 1.02, 0.10, 1                   q = 0.9232
Date    TT    R. A. (2000) Decl.     Delta      r    Elong.  Phase     V
2023 10 11    04 05 16.2 +15 09 04   0.09798 1.0696   134.6    41.7    24.6
...
2023 10 26    04 29 38.2 +18 50 45   0.06449 1.0467   143.2    34.7    23.4
...
2023 11 03    04 44 13.1 +22 25 56   0.04873 1.0336   147.4    31.1    22.7
...
2023 11 09    04 58 22.6 +26 45 21   0.03785 1.0235   149.5    29.4    22.1
2023 11 10    05 01 16.5 +27 41 45   0.03613 1.0218   149.6    29.3    22.0
2023 11 11    05 04 24.6 +28 43 08   0.03444 1.0202   149.7    29.3    21.9
...
2023 11 17    05 31 48.3 +37 16 14   0.02499 1.0100   147.0    32.2    21.2
...
2023 11 25    07 40 27.9 +58 28 49   0.01559 0.9964   125.4    53.8    20.8
...
2023 12 10    15 14 36.6 +23 19 00   0.02251 0.9717    53.4   125.6    24.9
M. P. C. Staff               (C) Copyright 2023 MPC           M.P.E.C. 2023-V174
    
    
More information about the Iaude
mailing list